Location: Maccacari
(45.1333°N, 11.1333°E)
Time: 02:35:37
(UTC+00:00)

Altair - Pass Details

Date: 02 February 2021
Orbit: 1501 x 1682 km, 47.2° (Epoch: 01 March)

Event Time Altitude Azimuth Distance (km) Brightness Sun altitude
Rises 03:17:52 0° 251° (WSW) 4,820 - -34.8°
Reaches altitude 10° 03:20:56 10° 252° (WSW) 3,857 - -34.3°
Exits shadow 03:29:16 68° 254° (WSW) 1,763 7.4 -32.8°
Maximum altitude 03:30:54 90° 338° (NNW) 1,670 7.5 -32.5°
Drops below altitude 10° 03:41:09 10° 75° (ENE) 3,948 10.5 -30.7°
Sets 03:44:19 0° 76° (ENE) 4,938 11.3 -30.2°
